Time,TemperatureF,DewpointF,PressureIn,WindDirection,WindDirectionDegrees,WindSpeedMPH,WindSpeedGustMPH,Humidity,HourlyPrecipIn,Conditions,Clouds,dailyrainin,SoftwareType,DateUTC
2013-05-02 00:12:00,48.3,36.0,30.64,NW,325,2.0,2.0,62,0.00,,,0.00,weatherlink.com 1.10,2013-05-02 04:12:00,
2013-05-02 00:27:00,47.6,36.0,30.64,NW,326,2.0,2.0,64,0.00,,,0.00,weatherlink.com 1.10,2013-05-02 04:27:00,
2013-05-02 00:42:00,47.3,36.0,30.64,NW,325,1.0,2.0,65,0.00,,,0.00,weatherlink.com 1.10,2013-05-02 04:42:00,
2013-05-02 00:57:00,47.4,36.0,30.64,NW,323,2.0,2.0,64,0.00,,,0.00,weatherlink.com 1.10,2013-05-02 04:57:00,
2013-05-02 01:12:00,46.9,36.0,30.63,NW,322,2.0,3.0,65,0.00,,,0.00,weatherlink.com 1.10,2013-05-02 05:12:00,
2013-05-02 01:27:00,46.5,36.0,30.63,NW,323,2.0,2.0,66,0.00,,,0.00,weatherlink.com 1.10,2013-05-02 05:27:00,
2013-05-02 01:42:00,46.0,36.0,30.62,NW,326,2.0,2.0,68,0.00,,,0.00,weatherlink.com 1.10,2013-05-02 05:42:00,
2013-05-02 01:57:00,45.7,36.0,30.62,NW,326,1.0,2.0,69,0.00,,,0.00,weatherlink.com 1.10,2013-05-02 05:57:00,
2013-05-02 02:12:00,45.6,36.0,30.62,NW,326,1.0,1.0,70,0.00,,,0.00,weatherlink.com 1.10,2013-05-02 06:12:00,
2013-05-02 02:27:00,45.0,36.0,30.62,NW,326,1.0,2.0,71,0.00,,,0.00,weatherlink.com 1.10,2013-05-02 06:27:00,
2013-05-02 02:42:00,44.8,36.0,30.61,NW,326,0.0,2.0,70,0.00,,,0.00,weatherlink.com 1.10,2013-05-02 06:42:00,
2013-05-02 02:57:00,44.8,36.0,30.61,NW,323,1.0,2.0,72,0.00,,,0.00,weatherlink.com 1.10,2013-05-02 06:57:00,
2013-05-02 03:12:00,44.7,36.0,30.61,NW,323,2.0,2.0,72,0.00,,,0.00,weatherlink.com 1.10,2013-05-02 07:12:00,
2013-05-02 03:27:00,44.1,36.0,30.61,NW,322,0.0,2.0,73,0.00,,,0.00,weatherlink.com 1.10,2013-05-02 07:27:00,
2013-05-02 03:42:00,44.0,35.0,30.61,NW,319,2.0,3.0,72,0.00,,,0.00,weatherlink.com 1.10,2013-05-02 07:42:00,
2013-05-02 03:57:00,43.7,35.0,30.61,NW,322,1.0,2.0,72,0.00,,,0.00,weatherlink.com 1.10,2013-05-02 07:57:00,
2013-05-02 04:12:00,43.4,36.0,30.61,NW,323,1.0,2.0,74,0.00,,,0.00,weatherlink.com 1.10,2013-05-02 08:12:00,
2013-05-02 04:27:00,43.2,36.0,30.61,NW,325,1.0,2.0,75,0.00,,,0.00,weatherlink.com 1.10,2013-05-02 08:27:00,
2013-05-02 04:42:00,43.3,36.0,30.61,NW,325,0.0,1.0,76,0.00,,,0.00,weatherlink.com 1.10,2013-05-02 08:42:00,
2013-05-02 04:57:00,42.9,36.0,30.61,NW,324,1.0,1.0,75,0.00,,,0.00,weatherlink.com 1.10,2013-05-02 08:57:00,
2013-05-02 05:12:00,42.4,35.0,30.61,NW,325,1.0,1.0,76,0.00,,,0.00,weatherlink.com 1.10,2013-05-02 09:12:00,
2013-05-02 05:27:00,41.8,35.0,30.61,NW,325,1.0,2.0,77,0.00,,,0.00,weatherlink.com 1.10,2013-05-02 09:27:00,
2013-05-02 05:42:00,41.7,35.0,30.61,NW,325,1.0,2.0,77,0.00,,,0.00,weatherlink.com 1.10,2013-05-02 09:42:00,
2013-05-02 05:57:00,41.9,35.0,30.61,NW,323,2.0,2.0,77,0.00,,,0.00,weatherlink.com 1.10,2013-05-02 09:57:00,
2013-05-02 06:12:00,42.2,35.0,30.62,NW,323,1.0,2.0,77,0.00,,,0.00,weatherlink.com 1.10,2013-05-02 10:12:00,
2013-05-02 06:27:00,42.8,36.0,30.62,NNW,331,1.0,1.0,76,0.00,,,0.00,weatherlink.com 1.10,2013-05-02 10:27:00,
2013-05-02 06:42:00,43.6,36.0,30.62,NNW,331,0.0,1.0,75,0.00,,,0.00,weatherlink.com 1.10,2013-05-02 10:42:00,
2013-05-02 06:57:00,44.9,37.0,30.63,NNW,332,0.0,0.0,73,0.00,,,0.00,weatherlink.com 1.10,2013-05-02 10:57:00,
2013-05-02 07:12:00,46.3,37.0,30.63,NNW,331,0.0,0.0,69,0.00,,,0.00,weatherlink.com 1.10,2013-05-02 11:12:00,
2013-05-02 07:27:00,47.7,36.0,30.63,NNW,328,1.0,2.0,64,0.00,,,0.00,weatherlink.com 1.10,2013-05-02 11:27:00,
2013-05-02 07:42:00,49.4,37.0,30.63,NNW,328,0.0,1.0,63,0.00,,,0.00,weatherlink.com 1.10,2013-05-02 11:42:00,
2013-05-02 07:57:00,51.6,38.0,30.64,SSE,166,1.0,2.0,61,0.00,,,0.00,weatherlink.com 1.10,2013-05-02 11:57:00,
2013-05-02 08:13:00,53.9,39.0,30.64,SSE,162,1.0,2.0,57,0.00,,,0.00,weatherlink.com 1.10,2013-05-02 12:13:00,
2013-05-02 08:28:00,57.0,40.0,30.64,SW,227,2.0,2.0,54,0.00,,,0.00,weatherlink.com 1.10,2013-05-02 12:28:00,
2013-05-02 08:43:00,59.3,40.0,30.64,South,182,1.0,3.0,49,0.00,,,0.00,weatherlink.com 1.10,2013-05-02 12:43:00,
2013-05-02 08:58:00,61.3,41.0,30.63,SW,222,0.0,2.0,48,0.00,,,0.00,weatherlink.com 1.10,2013-05-02 12:58:00,
2013-05-02 09:13:00,63.0,40.0,30.63,East,93,3.0,6.0,43,0.00,,,0.00,weatherlink.com 1.10,2013-05-02 13:13:00,
2013-05-02 09:28:00,63.2,38.0,30.63,SW,228,1.0,6.0,39,0.00,,,0.00,weatherlink.com 1.10,2013-05-02 13:28:00,
2013-05-02 09:43:00,65.7,33.0,30.63,ESE,102,5.0,6.0,30,0.00,,,0.00,weatherlink.com 1.10,2013-05-02 13:43:00,
2013-05-02 09:58:00,66.2,35.0,30.63,SSW,208,2.0,9.0,32,0.00,,,0.00,weatherlink.com 1.10,2013-05-02 13:58:00,
2013-05-02 10:13:00,67.1,34.0,30.63,SSE,163,5.0,9.0,29,0.00,,,0.00,weatherlink.com 1.10,2013-05-02 14:13:00,
2013-05-02 10:28:00,67.0,34.0,30.63,SSW,193,6.0,9.0,30,0.00,,,0.00,weatherlink.com 1.10,2013-05-02 14:28:00,
2013-05-02 10:43:00,67.9,35.0,30.62,SSE,161,5.0,9.0,30,0.00,,,0.00,weatherlink.com 1.10,2013-05-02 14:43:00,
2013-05-02 10:58:00,69.3,36.0,30.62,SE,132,6.0,8.0,30,0.00,,,0.00,weatherlink.com 1.10,2013-05-02 14:58:00,
2013-05-02 11:13:00,69.4,38.0,30.62,SSW,194,1.0,12.0,32,0.00,,,0.00,weatherlink.com 1.10,2013-05-02 15:13:00,
2013-05-02 11:28:00,70.4,37.0,30.62,SW,226,5.0,12.0,29,0.00,,,0.00,weatherlink.com 1.10,2013-05-02 15:28:00,
2013-05-02 11:43:00,70.7,36.0,30.61,SSE,165,5.0,9.0,28,0.00,,,0.00,weatherlink.com 1.10,2013-05-02 15:43:00,
2013-05-02 11:58:00,71.2,37.0,30.61,SW,232,2.0,7.0,29,0.00,,,0.00,weatherlink.com 1.10,2013-05-02 15:58:00,
2013-05-02 12:13:00,72.0,37.0,30.60,South,174,8.0,10.0,28,0.00,,,0.00,weatherlink.com 1.10,2013-05-02 16:13:00,
2013-05-02 12:28:00,71.6,38.0,30.59,WSW,238,0.0,6.0,29,0.00,,,0.00,weatherlink.com 1.10,2013-05-02 16:28:00,
2013-05-02 12:43:00,72.9,39.0,30.58,SSW,212,1.0,10.0,29,0.00,,,0.00,weatherlink.com 1.10,2013-05-02 16:43:00,
2013-05-02 12:58:00,72.5,38.0,30.58,South,183,2.0,7.0,29,0.00,,,0.00,weatherlink.com 1.10,2013-05-02 16:58:00,
2013-05-02 13:13:00,73.7,37.0,30.57,SW,231,1.0,8.0,26,0.00,,,0.00,weatherlink.com 1.10,2013-05-02 17:13:00,
2013-05-02 13:28:00,73.3,35.0,30.57,SW,219,1.0,10.0,25,0.00,,,0.00,weatherlink.com 1.10,2013-05-02 17:28:00,
2013-05-02 13:43:00,73.1,35.0,30.57,North,356,7.0,8.0,25,0.00,,,0.00,weatherlink.com 1.10,2013-05-02 17:43:00,
2013-05-02 13:58:00,73.8,37.0,30.56,NNE,27,3.0,11.0,26,0.00,,,0.00,weatherlink.com 1.10,2013-05-02 17:58:00,
2013-05-02 14:13:00,73.6,36.0,30.56,WNW,302,2.0,8.0,25,0.00,,,0.00,weatherlink.com 1.10,2013-05-02 18:13:00,
2013-05-02 14:28:00,74.6,37.0,30.55,South,169,1.0,8.0,26,0.00,,,0.00,weatherlink.com 1.10,2013-05-02 18:28:00,
2013-05-02 14:43:00,74.4,36.0,30.55,South,181,9.0,10.0,25,0.00,,,0.00,weatherlink.com 1.10,2013-05-02 18:43:00,
2013-05-02 14:59:00,75.0,40.0,30.55,South,183,3.0,5.0,28,0.00,,,0.00,weatherlink.com 1.10,2013-05-02 18:59:00,
2013-05-02 15:14:00,74.5,37.0,30.54,ESE,115,3.0,10.0,26,0.00,,,0.00,weatherlink.com 1.10,2013-05-02 19:14:00,
2013-05-02 15:29:00,74.0,37.0,30.53,SSW,211,1.0,8.0,26,0.00,,,0.00,weatherlink.com 1.10,2013-05-02 19:29:00,
2013-05-02 15:44:00,75.0,39.0,30.53,South,183,3.0,9.0,27,0.00,,,0.00,weatherlink.com 1.10,2013-05-02 19:44:00,
2013-05-02 15:59:00,74.4,35.0,30.53,NNE,17,3.0,7.0,24,0.00,,,0.00,weatherlink.com 1.10,2013-05-02 19:59:00,
2013-05-02 16:14:00,73.7,37.0,30.53,North,357,1.0,7.0,26,0.00,,,0.00,weatherlink.com 1.10,2013-05-02 20:14:00,
2013-05-02 16:29:00,73.3,38.0,30.52,WSW,258,1.0,5.0,28,0.00,,,0.00,weatherlink.com 1.10,2013-05-02 20:29:00,
2013-05-02 16:44:00,74.2,36.0,30.52,SSW,208,4.0,11.0,25,0.00,,,0.00,weatherlink.com 1.10,2013-05-02 20:44:00,
2013-05-02 16:59:00,73.9,36.0,30.52,SSE,151,5.0,8.0,25,0.00,,,0.00,weatherlink.com 1.10,2013-05-02 20:59:00,
2013-05-02 17:14:00,73.1,35.0,30.51,WNW,300,7.0,9.0,25,0.00,,,0.00,weatherlink.com 1.10,2013-05-02 21:14:00,
2013-05-02 17:29:00,72.5,37.0,30.51,SE,134,0.0,6.0,27,0.00,,,0.00,weatherlink.com 1.10,2013-05-02 21:29:00,
2013-05-02 17:44:00,71.9,36.0,30.50,NNE,13,6.0,6.0,27,0.00,,,0.00,weatherlink.com 1.10,2013-05-02 21:44:00,
2013-05-02 17:59:00,71.1,35.0,30.51,NW,309,1.0,6.0,27,0.00,,,0.00,weatherlink.com 1.10,2013-05-02 21:59:00,
2013-05-02 18:14:00,70.5,36.0,30.50,NNW,333,2.0,7.0,28,0.00,,,0.00,weatherlink.com 1.10,2013-05-02 22:14:00,
2013-05-02 18:29:00,70.0,34.0,30.50,WNW,293,2.0,6.0,27,0.00,,,0.00,weatherlink.com 1.10,2013-05-02 22:29:00,
2013-05-02 18:44:00,68.9,37.0,30.49,NW,309,1.0,2.0,31,0.00,,,0.00,weatherlink.com 1.10,2013-05-02 22:44:00,
2013-05-02 18:59:00,67.2,37.0,30.50,NW,318,0.0,2.0,33,0.00,,,0.00,weatherlink.com 1.10,2013-05-02 22:59:00,
2013-05-02 19:14:00,65.8,36.0,30.50,NW,325,1.0,2.0,33,0.00,,,0.00,weatherlink.com 1.10,2013-05-02 23:14:00,
2013-05-02 19:29:00,64.7,36.0,30.50,WNW,302,1.0,3.0,35,0.00,,,0.00,weatherlink.com 1.10,2013-05-02 23:29:00,
2013-05-02 19:44:00,63.7,37.0,30.50,NW,322,2.0,3.0,38,0.00,,,0.00,weatherlink.com 1.10,2013-05-02 23:44:00,
2013-05-02 19:59:00,63.3,36.0,30.50,NW,323,2.0,2.0,37,0.00,,,0.00,weatherlink.com 1.10,2013-05-02 23:59:00,
2013-05-02 20:14:00,63.9,35.0,30.50,NW,318,0.0,2.0,34,0.00,,,0.00,weatherlink.com 1.10,2013-05-03 00:14:00,
2013-05-02 20:29:00,62.7,37.0,30.50,NW,324,2.0,3.0,38,0.00,,,0.00,weatherlink.com 1.10,2013-05-03 00:29:00,
2013-05-02 20:44:00,61.9,36.0,30.50,ENE,57,0.0,5.0,38,0.00,,,0.00,weatherlink.com 1.10,2013-05-03 00:44:00,
2013-05-02 21:00:00,61.1,36.0,30.51,NW,321,1.0,3.0,40,0.00,,,0.00,weatherlink.com 1.10,2013-05-03 01:00:00,
2013-05-02 21:14:00,61.2,37.0,30.51,WNW,298,0.0,3.0,40,0.00,,,0.00,weatherlink.com 1.10,2013-05-03 01:14:00,
2013-05-02 21:29:00,60.1,37.0,30.50,NW,318,2.0,3.0,43,0.00,,,0.00,weatherlink.com 1.10,2013-05-03 01:29:00,
2013-05-02 21:44:00,59.3,38.0,30.50,NW,319,2.0,3.0,46,0.00,,,0.00,weatherlink.com 1.10,2013-05-03 01:44:00,
2013-05-02 21:59:00,58.8,38.0,30.50,NNW,328,3.0,3.0,47,0.00,,,0.00,weatherlink.com 1.10,2013-05-03 01:59:00,
2013-05-02 22:14:00,58.2,39.0,30.49,NW,321,2.0,3.0,49,0.00,,,0.00,weatherlink.com 1.10,2013-05-03 02:14:00,
2013-05-02 22:29:00,57.8,39.0,30.49,NW,322,2.0,3.0,50,0.00,,,0.00,weatherlink.com 1.10,2013-05-03 02:29:00,
2013-05-02 22:45:00,57.8,39.0,30.49,NW,320,2.0,3.0,49,0.00,,,0.00,weatherlink.com 1.10,2013-05-03 02:45:00,
2013-05-02 22:59:00,56.7,39.0,30.49,NNW,328,2.0,3.0,51,0.00,,,0.00,weatherlink.com 1.10,2013-05-03 02:59:00,
2013-05-02 23:14:00,57.5,37.0,30.50,WNW,302,0.0,3.0,47,0.00,,,0.00,weatherlink.com 1.10,2013-05-03 03:14:00,
2013-05-02 23:29:00,56.1,37.0,30.51,NW,324,0.0,2.0,49,0.00,,,0.00,weatherlink.com 1.10,2013-05-03 03:29:00,
2013-05-02 23:44:00,57.1,39.0,30.52,NE,34,1.0,8.0,51,0.00,,,0.00,weatherlink.com 1.10,2013-05-03 03:44:00,
2013-05-02 23:59:00,56.0,39.0,30.52,NNE,23,1.0,6.0,54,0.00,,,0.00,weatherlink.com 1.10,2013-05-03 03:59:00,